Other Public Products
Issued by NWS Grand Forks, ND

Home | Current Version | Previous Version | Graphics & Text | Print | Product List | Glossary On
Versions: 1 2 3 4 5 6 7 8 9 10 11 12 13 14 15 16 17 18 19 20 21 22 23 24 25 26 27 28 29 30 31 32 33 34 35 36 37 38 39 40 41 42 43 44 45 46 47 48 49 50
000
FPUS83 KFGF 021510
OPUFGF
PRAIRIE TO PINES WEATHER ROUNDUP
NATIONAL WEATHER SERVICE EASTERN NORTH DAKOTA/GRAND FORKS ND
900 AM CST FRI DEC 02 2016

 **SATELLITE DATA USED TO AUGMENT SKY COVER AT AUTOMATED STATIONS**
 *****  WEATHER ACROSS EASTERN NORTH DAKOTA  *****

CITY           SKY/WX    TMP DP  RH WIND       PRES   REMARKS
GRAND FORKS    CLOUDY    30  22  72 CALM      30.24R
GRAND FORKS AF CLOUDY    29  23  78 NE1       30.24R
GRAND CITY NWS   N/A     28 N/A N/A VRB2        N/A
BUXTON         NOT AVBL
DEVILS LAKE    CLOUDY    28  21  75 W5        30.23R WCI  23
FARGO          CLOUDY    28  20  71 N8        30.25R WCI  20
WAHPETON ARPT  CLOUDY    28  21  74 N6        30.25R WCI  22
$$

 *****  WEATHER ACROSS CENTRAL AND WESTERN NORTH DAKOTA  *****

CITY           SKY/WX    TMP DP  RH WIND       PRES   REMARKS
JAMESTOWN      CLOUDY    26  19  74 NW7       30.23R WCI  18
BISMARCK       CLOUDY    25  18  74 CALM      30.25R
MINOT          CLOUDY    26  21  81 SE3       30.21R
MINOT AFB      CLOUDY    25  21  85 S3        30.20R
GARRISON         N/A     26  22  84 SW8       30.20R WCI  18
WILLISTON      CLOUDY    27  23  85 S6        30.17S WCI  20
DICKINSON      CLOUDY    23  20  88 S6        30.15R WCI  16
HETTINGER      CLOUDY    24  21  88 S5        30.17R WCI  18
$$

 *****  OTHER OBSERVATIONS NORTHEAST NORTH DAKOTA  *****

CITY           SKY/WX    TMP DP  RH WIND       PRES   REMARKS
WALHALLA         N/A     27  27 100 NW3       30.24R
LANGDON        CLOUDY    28  25  86 CALM      30.20R
CAVALIER         N/A     28  25  86 NW5       30.24R WCI  23
GRAFTON        CLOUDY    28  27  93 W3        30.26R
CANDO          CLOUDY    27  27 100 W6        30.24R WCI  20
FORT TOTTEN      N/A     28  22  77 NW5       29.95S WCI  23
ROLLA          CLOUDY    27  23  86 W5        30.21R WCI  21
RUGBY            N/A     25  23  93 CALM      30.22R
 ***** THE ABOVE OBSERVATIONS ARE NON NWS ARE NOT QUALITY
        CONTROLLED AND MAY MIS-REPORT RAIN FOR SNOW...
$$

 *****  OTHER OBSERVATIONS SOUTHEAST NORTH DAKOTA *****

CITY           SKY/WX    TMP DP  RH WIND       PRES   REMARKS
COOPERSTOWN    CLOUDY    27  21  80 N6        30.24R WCI  20
VALLEY CITY    CLOUDY    25  23  93 N5        30.25R WCI  19
OAKES          NOT AVBL
GWINNER        CLOUDY    28  23  80 N9        30.25R WCI  20
SHEYENNE NWR     N/A     27  20  75 N3        29.95S
BUFFALO        NOT AVBL
WYNDMERE       NOT AVBL
 ***** THE ABOVE OBSERVATIONS ARE NON NWS ARE NOT QUALITY
       CONTROLLED AND MAY MIS-REPORT RAIN FOR SNOW...
$$

  *****  WEATHER ACROSS NORTHERN MINNESOTA  *****

CITY           SKY/WX    TMP DP  RH WIND       PRES   REMARKS
FLAG ISLAND    CLOUDY    21  19  93 W8        30.19S WCI  12
WARROAD        CLOUDY    23  19  86 NW6       30.20S WCI  16
ROSEAU         CLOUDY    27  21  80 N6        30.20R WCI  20
HALLOCK        CLOUDY    28  25  86 NW6       30.23R WCI  22
THF RVR FALLS  CLOUDY    25  20  81 NW6       30.22R WCI  18
HALSTAD          N/A     27  21  77 N10         N/A  WCI  18
FOSSTON        CLOUDY    23  18  80 NW5       30.21R WCI  17
BAUDETTE       CLOUDY    21  19  92 W7        30.19R WCI  12
WASKISH        CLOUDY    21  21 100 W5        30.20R WCI  15
CROOKSTON      CLOUDY    27  21  80 N6        30.24S WCI  20
$$
  *****  WEATHER ACROSS CENTRAL AND WEST MINNESOTA  *****

CITY           SKY/WX    TMP DP  RH WIND       PRES   REMARKS
BEMIDJI        CLOUDY    22  19  91 W8        30.18S WCI  12
PARK RAPIDS    CLOUDY    24  17  74 N8        30.19R WCI  15
WADENA         CLOUDY    25  19  80 W7        30.20R WCI  17
DETROIT LAKES  CLOUDY    27  23  86 NW7       30.21R WCI  19
MOORHEAD       CLOUDY    27  21  80 N9        30.25R WCI  17
FERGUS FALLS   CLOUDY    27  19  74 N10       30.27R WCI  17
ELBOW LAKE     CLOUDY    26  21  83 N9        30.22R WCI  16
MORRIS MN      CLOUDY    28  21  74 N9        30.22R WCI  20
STAPLES        CLOUDY    25  21  86 NW10      30.20R WCI  15
WHEATON        CLOUDY   N/A N/A N/A NW10      30.26R
$$
  *****  WEATHER ELSEWHERE ACROSS MINNESOTA  *****

CITY           SKY/WX    TMP DP  RH WIND       PRES   REMARKS
DULUTH         CLOUDY    27  22  81 NW7       30.13R WCI  19
INTRNTL FALLS  CLOUDY    25  21  85 NW6       30.17R WCI  18
ELY            CLOUDY    21  21 100 NW5       30.14R WCI  15
CLOQUET        CLOUDY    27  21  80 NW7G16    30.15R WCI  19
BRAINERD       CLOUDY    25  20  81 NW8       30.19R WCI  16
HIBBING        CLOUDY    24  21  88 N8        30.15R WCI  15
ALEXANDRIA     CLOUDY    25  21  85 NW9       30.21R WCI  15
SAINT CLOUD    CLOUDY    29  23  78 NW9       30.19R WCI  20
MINNEAPOLIS    CLOUDY    32  21  64 NW8       30.20R WCI  25
$$

  *****  WEATHER ACROSS SOUTH DAKOTA  *****

CITY           SKY/WX    TMP DP  RH WIND       PRES   REMARKS
SIOUX FALLS    CLOUDY    31  28  89 N5        30.22R
BROOKINGS      CLOUDY    27  25  92 CALM      30.21R
WATERTOWN      CLOUDY    26  23  88 N7        30.20R WCI  18
HURON          CLOUDY    29  25  85 N8        30.25R WCI  21
SISSETON         N/A     28  22  78 N7        30.23R WCI  21
ABERDEEN       CLOUDY    28  20  71 N7        30.25R WCI  21
MITCHELL       CLOUDY    30  29  96 N3        30.25R
PIERRE         CLOUDY    28  27  96 CALM      30.22R
MOBRIDGE       CLOUDY    29  23  78 NE5       30.20R HAZE    WCI  24
RAPID CITY     MOCLDY    24  19  81 NW3       30.16R
$$

  *****  SOME WEATHER IN NEARBY STATES *****

CITY           SKY/WX    TMP DP  RH WIND       PRES   REMARKS
GLASGOW MT     CLOUDY    26  23  88 VRB6      30.15R WCI  19
GREAT FALLS MT CLEAR     22  17  81 S13       30.13S WCI  10
CHEYENNE WY    CLEAR     19  12  74 NW7       30.11R WCI  10
SCOTTSBLUFF NE CLEAR     18  13  80 NW6       30.18R WCI  10
OMAHA NE       MOSUNNY   32  28  85 CALM      30.26R
DES MOINES IA  CLOUDY    37  32  82 N7        30.23R
DAVENPORT IA   CLOUDY    37  33  85 W10       30.19R
CHICAGO IL     CLOUDY    38  31  76 W10       30.13R
EAU CLAIRE WI  CLOUDY    30  21  69 W6        30.17R WCI  24
LA CROSSE WI   CLOUDY    34  23  64 NW9       30.18R
$$

  *****  SOME NATIONAL WEATHER *****

CITY           SKY/WX    TMP DP  RH WIND       PRES   REMARKS
LA GUARDIA NY  PTSUNNY   47  30  51 W15       29.92R
RALEIGH NC     MOSUNNY   49  32  52 W7        30.16R
ATLANTA GA     MOSUNNY   47  30  51 NW10      30.26R
NEW ORLEANS LA PTSUNNY   60  43  53 E9        30.22R
OKLAHOMA CITY  PTSUNNY   37  29  72 NW6       30.16R
ALBUQUERQUE NM CLOUDY    34  18  52 N9        30.01R
SALT LAKE CITY PTCLDY    25  23  92 S3        30.19R
LOS ANGELES CA PTCLDY    57  20  23 VRB5      30.00R
BOISE ID       CLEAR     21  17  84 SE5       30.35R WCI  15
SEATTLE WA     CLOUDY    44  42  93 SE10      30.29S
$$

*** WEATHER ACROSS MANITOBA...SASKATCHEWAN AND ONTARIO ***
                ***ONTARIO***

CITY           SKY/WX    TMP DP  RH WIND       PRES   REMARKS
GERALDTON      LGT SNOW  27  25  93 NW8       30.01R WCI  18
THUNDER BAY    PTSUNNY   27  21  80 W8        30.11R WCI  18
SIOUX LOOKOUT  FRZ DRZL  21  19  93 NW6       30.14R WCI  14
TORONTO        PTSUNNY   41  30  65 W25G37    29.84S
BIG TROUT LK   LGT SNOW  21  19  93 NW8       30.18R WCI  12
PICKLE LAKE    FLURRIES  18  16  93 N3        30.12R
DRYDEN         CLOUDY    21  19  93 NW5       30.15R WCI  15
KENORA         LGT SNOW  19  18  93 NW5       30.17R FOG     WCI  13
$$
                *** MANITOBA***

CITY           SKY/WX    TMP DP  RH WIND       PRES   REMARKS
BRANDON        CLOUDY    27  23  86 CALM      30.20R
DAUPHIN        CLOUDY    25  25 100 CALM      30.20R FOG
ISLAND LAKE    FLURRIES  14  12  92 CALM      30.23R
PILOT MOUND      N/A     25  25 100 SW2         N/A
THE PAS        FOG       18  14  86 SE3       30.18S VSB 1/4
THOMPSON       LGT SNOW  18  14  86 CALM      30.22R
WINNIPEG       MOCLDY    25  19  80 NE8       30.23R WCI  16
LYNN LAKE      CLOUDY     7   5  92 SE3       30.13F FOG
CHURCHILL      MOCLDY     9   7  92 SW8       30.24F FOG     WCI  -4
GILLAM         SNOW      12  10  92 SW5       30.26R VSB 1/2 WCI   4
$$
                ***SASKATCHEWAN***

CITY           SKY/WX    TMP DP  RH WIND       PRES   REMARKS
ESTEVAN        FLURRIES  27  23  86 S6        30.17R WCI  20
KINDERSLEY     CLOUDY    23  21  93 S3        30.08S
LLOYDMINSTER   FOG       19  18  93 S8        30.04F VSB 3/4 WCI   9
PRINCE ALBERT  FRZ DRZL  23  21  93 CALM      30.13R FOG
REGINA         CLOUDY    25  25 100 W6        30.12S FOG     WCI  18
YORKTON        CLOUDY    28  23  80 E3        30.15R   C1F1C2F2C3F3C4F4C5F5C6F6C7F7C8F8C9F9CaFaCbFbCcFcCdFdCe!



USA.gov is the U.S. government's official web portal to all federal, state and local government web resources and services.